Copper Harbor, MI

1:44 PM EDT on August 24, 2016 (GMT -0400)
Copper Harbor

Weather History for KP59 - May, 2013

Change the Weather History Date:

Friday, May 31, 2013

  Actual Average Record
Temperature  
Mean Temperature 64 °F -  
Max Temperature 77 °F 57 °F 82 °F (2011)
Min Temperature 52 °F 40 °F 36 °F (2015)
Growing Degree Days 14 (Base 50)    
Moisture  
Dew Point 56 °F    
Average Humidity 79    
Maximum Humidity 100    
Minimum Humidity 48    
Precipitation  
Precipitation 0.49 in - - ()
Sea Level Pressure  
Sea Level Pressure 29.64 in    
Wind  
Wind Speed 8 mph (WSW)    
Max Wind Speed 20 mph    
Max Gust Speed 25 mph    
Averages and records for this station are not official NWS values.
T = Trace of Precipitation, MM = Missing Value Source: NWS Daily Summary

Daily Weather History Graph

Daily Weather History Graph

Search for Another Location

Airport or City:

Trip Planner

Search our weather history database for the weather conditions in past years. The results will help you decide how hot, cold, wet, or windy it might be!

Date:

Astronomy

May. 31, 2013 Rise Set
Actual Time 5:58 AM EDT 9:40 PM EDT
Civil Twilight 5:19 AM EDT 10:19 PM EDT
Nautical Twilight 4:27 AM EDT 11:12 PM EDT
Astronomical Twilight 3:14 AM EDT 12:26 AM EDT
Moon 1:54 AM EDT (5/31) 1:36 PM EDT (5/31)
Length of Visible Light 16h 59m
Length of Day
15h 41m
Waning Gibbous, 51% of the Moon is Illuminated
May 31
Waning Gibbous
May 31
Last Quarter
Jun 8
New
Jun 16
First Quarter
Jun 23
Full

Hourly Weather History & Observations

Time (EDT) Temp. Dew Point Humidity Pressure Visibility Wind Dir Wind Speed Gust Speed Precip Events Conditions
12:51 AM 61.0 °F 59.0 °F 93% 29.68 in - SW 8.1 mph 17.3 mph N/A   Unknown
1:51 AM 62.1 °F 60.1 °F 93% 29.65 in - SW 8.1 mph - N/A   Unknown
2:51 AM 60.1 °F 57.9 °F 93% 29.64 in - SW 6.9 mph - N/A   Unknown
3:51 AM 60.1 °F 57.9 °F 93% 29.63 in - SW 8.1 mph - N/A   Unknown
4:51 AM 59.0 °F 57.9 °F 96% 29.63 in - SW 8.1 mph - N/A   Unknown
5:51 AM 60.1 °F 57.9 °F 93% 29.62 in - SSW 8.1 mph - N/A   Unknown
6:51 AM 59.0 °F 55.9 °F 90% 29.64 in - SW 11.5 mph 18.4 mph N/A   Unknown
7:51 AM 59.0 °F 55.0 °F 87% 29.66 in - SW 8.1 mph 17.3 mph N/A   Unknown
8:51 AM 60.1 °F 55.9 °F 86% 29.62 in - Variable 6.9 mph - N/A   Unknown
9:51 AM 63.0 °F 57.0 °F 81% 29.63 in - Variable 4.6 mph - N/A   Unknown
10:51 AM 64.0 °F 57.0 °F 78% 29.63 in - SW 10.4 mph 16.1 mph N/A   Unknown
11:51 AM 69.1 °F 59.0 °F 70% 29.64 in - WSW 9.2 mph 18.4 mph N/A   Unknown
12:51 PM 71.1 °F 59.0 °F 66% 29.64 in - WSW 9.2 mph - N/A   Unknown
1:51 PM 73.0 °F 57.9 °F 59% 29.64 in - WSW 10.4 mph 19.6 mph N/A   Unknown
2:51 PM 64.9 °F 57.0 °F 75% 29.65 in - North 5.8 mph - N/A   Unknown
3:51 PM 64.9 °F 55.9 °F 73% 29.64 in - NNE 3.5 mph - N/A   Unknown
4:51 PM 75.0 °F 55.9 °F 51% 29.61 in - SSW 9.2 mph - N/A   Unknown
5:51 PM 77.0 °F 55.9 °F 48% 29.59 in - Variable 5.8 mph - N/A   Unknown
6:51 PM 75.9 °F 55.0 °F 48% 29.59 in - SSW 11.5 mph 19.6 mph N/A   Unknown
7:51 PM 69.1 °F 57.0 °F 65% 29.60 in - SW 11.5 mph 19.6 mph N/A   Unknown
8:51 PM 66.0 °F 55.9 °F 70% 29.62 in - Calm Calm - N/A   Unknown
9:51 PM 54.0 °F 50.0 °F 86% 29.66 in - NNW 19.6 mph 25.3 mph 0.01 in   Unknown
10:51 PM 52.0 °F 52.0 °F 100% 29.71 in - North 12.7 mph - 0.28 in   Unknown
11:51 PM 55.0 °F 53.1 °F 93% 29.63 in - Calm Calm - 0.20 in   Unknown